Weather History for PAOR - June, 2013

Change the Weather History Date:

Sunday, June 23, 2013

  Actual Average Record
Temperature  
Mean Temperature 63 °F -  
Max Temperature 73 °F 67 °F 86 °F (2004)
Min Temperature 53 °F 46 °F 37 °F (1965)
Degree Days  
Heating Degree Days 2    
Growing Degree Days 13 (Base 50)    
Moisture  
Dew Point 47 °F    
Average Humidity 57    
Maximum Humidity 75    
Minimum Humidity 35    
Precipitation  
Precipitation 0.00 in - - ()
Sea Level Pressure  
Sea Level Pressure 29.64 in    
Wind  
Wind Speed 2 mph (NNE)    
Max Wind Speed 7 mph    
Max Gust Speed -    
Visibility 10 miles    
Events Rain    
Averages and records for this station are not official NWS values.
T = Trace of Precipitation, MM = Missing Value Source: NWS Daily Summary

Daily Weather History Graph

Daily Weather History Graph

Search for Another Location

Airport or City:

Trip Planner

Search our weather history database for the weather conditions in past years. The results will help you decide how hot, cold, wet, or windy it might be!

Date:

Astronomy

Jun. 23, 2013 Rise Set
Actual Time 3:21 AM AKDT 11:38 PM AKDT
Civil Twilight 2:02 AM AKDT 12:57 AM AKDT
Nautical Twilight Sun does not set Sun does not set
Astronomical Twilight Sun does not set Sun does not set
Moon 11:02 PM AKDT (6/23) 4:32 AM AKDT (6/23)
Length of Visible Light 22h 55m
Length of Day
20h 16m
Full, 100% of the Moon is Illuminated
Jun 23
Full
Jun 29
Last Quarter
Jul 7
New
Jul 15
First Quarter
Jul 22
Full

Hourly Weather History & Observations

Time (AKDT) Temp. Dew Point Humidity Pressure Visibility Wind Dir Wind Speed Gust Speed Precip Events Conditions
12:53 AM 61.0 °F 50.0 °F 67% 29.68 in 10.0 mi ENE 3.5 mph - N/A   Mostly Cloudy
1:53 AM 55.9 °F 48.0 °F 75% 29.69 in 10.0 mi Calm Calm - N/A   Mostly Cloudy
2:53 AM 54.0 °F 46.0 °F 75% 29.68 in 10.0 mi Calm Calm - N/A   Mostly Cloudy
3:53 AM 54.0 °F 46.0 °F 75% 29.69 in 10.0 mi Calm Calm - N/A   Mostly Cloudy
4:53 AM 53.1 °F 42.1 °F 66% 29.68 in 10.0 mi Calm Calm - N/A   Mostly Cloudy
5:53 AM 57.0 °F 46.0 °F 67% 29.67 in 10.0 mi North 3.5 mph - N/A   Mostly Cloudy
6:53 AM 61.0 °F 48.0 °F 62% 29.67 in 10.0 mi Calm Calm - N/A   Clear
7:53 AM 63.0 °F 46.0 °F 54% 29.65 in 10.0 mi NNW 4.6 mph - N/A   Clear
8:53 AM 62.1 °F 41.0 °F 46% 29.66 in 10.0 mi Calm Calm - N/A   Mostly Cloudy
9:53 AM 63.0 °F 39.9 °F 43% 29.66 in 10.0 mi Calm Calm - N/A   Mostly Cloudy
10:53 AM 63.0 °F 48.9 °F 60% 29.66 in 10.0 mi East 5.8 mph - 0.00 in Rain Light Rain
11:53 AM 62.1 °F 52.0 °F 70% 29.66 in 10.0 mi Calm Calm - 0.00 in Rain Light Rain
12:53 PM 64.9 °F 48.9 °F 56% 29.66 in 10.0 mi Calm Calm - 0.00 in   Overcast
1:53 PM 68.0 °F 48.0 °F 49% 29.66 in 10.0 mi Variable 3.5 mph - N/A   Mostly Cloudy
2:53 PM 71.1 °F 48.9 °F 45% 29.63 in 10.0 mi NE 4.6 mph - N/A   Scattered Clouds
3:53 PM 69.1 °F 50.0 °F 51% 29.62 in 10.0 mi Calm Calm - 0.00 in   Mostly Cloudy
4:53 PM 69.1 °F 48.0 °F 47% 29.61 in 10.0 mi Variable 4.6 mph - N/A   Scattered Clouds
5:53 PM 73.9 °F 46.0 °F 37% 29.58 in 10.0 mi Calm Calm - N/A   Scattered Clouds
6:53 PM 73.0 °F 44.1 °F 35% 29.58 in 10.0 mi Calm Calm - N/A   Scattered Clouds
7:53 PM 71.1 °F 44.1 °F 38% 29.58 in 10.0 mi NNE 3.5 mph - N/A   Clear
8:53 PM 64.9 °F 48.0 °F 54% 29.61 in 10.0 mi NE 6.9 mph - N/A   Partly Cloudy
9:53 PM 64.0 °F 48.9 °F 58% 29.60 in 10.0 mi Calm Calm - N/A   Mostly Cloudy
10:53 PM 62.1 °F 51.1 °F 67% 29.62 in 10.0 mi Calm Calm - N/A   Mostly Cloudy
11:53 PM 57.9 °F 50.0 °F 75% 29.63 in 10.0 mi Calm Calm - N/A   Mostly Cloudy